| time (UTC) | temp F | wind direction | speed MPH | gust MPH | rain 1hr in | rain 24hr in | rain mn in | humidity % | barometer mb |
| 20260504185432 | 78 | 134 | 0.0 | 1.0 | 0.00 | 0.00 | 0.00 | 43 | 1015.0 |
| 20260504184928 | 78 | 112 | 1.0 | 6.0 | 0.00 | 0.00 | 0.00 | 42 | 1015.2 |
| 20260504184424 | 79 | 235 | 1.0 | 1.0 | 0.00 | 0.00 | 0.00 | 41 | 1015.2 |
| 20260504183920 | 78 | 230 | 1.0 | 2.0 | 0.00 | 0.00 | 0.00 | 42 | 1015.3 |
| 20260504183417 | 77 | 19 | 0.0 | 3.0 | 0.00 | 0.00 | 0.00 | 42 | 1015.3 |
| 20260504182915 | 79 | 112 | 1.0 | 5.0 | 0.00 | 0.00 | 0.00 | 42 | 1015.5 |
| 20260504182412 | 76 | 310 | 1.0 | 3.0 | 0.00 | 0.00 | 0.00 | 43 | 1015.6 |
| 20260504181909 | 77 | 128 | 2.0 | 2.0 | 0.00 | 0.00 | 0.00 | 43 | 1015.8 |
| 20260504181406 | 78 | 104 | 1.0 | 3.0 | 0.00 | 0.00 | 0.00 | 41 | 1015.8 |
| 20260504180905 | 78 | 238 | 1.0 | 2.0 | 0.00 | 0.00 | 0.00 | 42 | 1015.8 |
| 20260504180403 | 76 | 105 | 5.0 | 7.0 | 0.00 | 0.00 | 0.00 | 45 | 1015.7 |
| 20260504175901 | 78 | 205 | 2.0 | 2.0 | 0.00 | 0.00 | 0.00 | 44 | 1015.8 |
| 20260504175357 | 78 | 304 | 1.0 | 2.0 | 0.00 | 0.00 | 0.00 | 45 | 1015.9 |
| 20260504174855 | 75 | 66 | 0.0 | 2.0 | 0.00 | 0.00 | 0.00 | 46 | 1016.1 |
| 20260504174352 | 79 | 272 | 0.0 | 5.0 | 0.00 | 0.00 | 0.00 | 44 | 1016.1 |
| 20260504173849 | 78 | 120 | 1.0 | 2.0 | 0.00 | 0.00 | 0.00 | 43 | 1015.9 |
| 20260504173346 | 78 | 15 | 1.0 | 1.0 | 0.00 | 0.00 | 0.00 | 45 | 1016.0 |
| 20260504172843 | 76 | 17 | 0.0 | 1.0 | 0.00 | 0.00 | 0.00 | 46 | 1016.2 |
| 20260504172340 | 77 | 338 | 1.0 | 2.0 | 0.00 | 0.00 | 0.00 | 43 | 1016.1 |
| 20260504171835 | 76 | 117 | 1.0 | 3.0 | 0.00 | 0.00 | 0.00 | 44 | 1016.4 |
| 20260504171333 | 78 | 175 | 1.0 | 2.0 | 0.00 | 0.00 | 0.00 | 45 | 1016.3 |
| 20260504170830 | 78 | 353 | 0.0 | 3.0 | 0.00 | 0.00 | 0.00 | 44 | 1016.4 |
| 20260504170327 | 77 | 337 | 0.0 | 1.0 | 0.00 | 0.00 | 0.00 | 44 | 1016.7 |
| 20260504160245 | 74 | 227 | 0.0 | 1.0 | 0.00 | 0.00 | 0.00 | 49 | 1017.4 |
| 20260504150711 | 70 | 153 | 0.0 | 5.0 | 0.00 | 0.00 | 0.00 | 56 | 1017.5 |
| 20260504150207 | 69 | 338 | 0.0 | 2.0 | 0.00 | 0.00 | 0.00 | 55 | 1017.6 |
| 20260504141136 | 65 | 6 | 0.0 | 2.0 | 0.00 | 0.00 | 0.00 | 64 | 1017.8 |
| 20260504140633 | 64 | 173 | 0.0 | 2.0 | 0.00 | 0.00 | 0.00 | 64 | 1018.0 |
| 20260504140129 | 64 | 158 | 0.0 | 2.0 | 0.00 | 0.00 | 0.00 | 64 | 1017.9 |
| 20260504130557 | 60 | 59 | 0.0 | 1.0 | 0.00 | 0.00 | 0.00 | 72 | 1018.0 |
| 20260504110445 | 44 | 330 | 0.0 | 0.0 | 0.00 | 0.00 | 0.00 | 99 | 1017.2 |
| 20260504100401 | 45 | 336 | 0.0 | 0.0 | 0.00 | 0.00 | 0.00 | 99 | 1017.3 |
| 20260504081754 | 46 | 350 | 0.0 | 0.0 | 0.00 | 0.00 | 0.00 | 99 | 1017.1 |
| 20260504081251 | 46 | 350 | 0.0 | 0.0 | 0.00 | 0.00 | 0.00 | 99 | 1016.9 |
| 20260504080748 | 46 | 342 | 0.0 | 0.0 | 0.00 | 0.00 | 0.00 | 99 | 1017.2 |
| 20260504080244 | 46 | 338 | 0.0 | 0.0 | 0.00 | 0.00 | 0.00 | 99 | 1017.3 |
| 20260504070212 | 47 | 336 | 0.0 | 0.0 | 0.00 | 0.00 | 0.00 | 98 | 1017.5 |
| 20260504060132 | 48 | 336 | 0.0 | 0.0 | 0.00 | 0.00 | 0.00 | 95 | 1018.1 |
| 20260504050600 | 50 | 338 | 0.0 | 0.0 | 0.00 | 0.00 | 0.00 | 92 | 1018.2 |
| 20260504045554 | 50 | 330 | 0.0 | 0.0 | 0.00 | 0.00 | 0.00 | 90 | 1018.2 |
| 20260504045049 | 50 | 329 | 0.0 | 0.0 | 0.00 | 0.00 | 0.00 | 90 | 1018.3 |
| 20260504044547 | 50 | 328 | 0.0 | 0.0 | 0.00 | 0.00 | 0.00 | 89 | 1018.2 |
| 20260504044044 | 50 | 324 | 0.0 | 0.0 | 0.00 | 0.00 | 0.00 | 90 | 1018.3 |
| 20260504043541 | 51 | 326 | 0.0 | 0.0 | 0.00 | 0.00 | 0.00 | 89 | 1018.3 |
| 20260504043038 | 50 | 337 | 0.0 | 0.0 | 0.00 | 0.00 | 0.00 | 89 | 1018.5 |
| 20260504042535 | 51 | 331 | 0.0 | 0.0 | 0.00 | 0.00 | 0.00 | 88 | 1018.6 |
| 20260504042032 | 51 | 348 | 0.0 | 0.0 | 0.00 | 0.00 | 0.00 | 88 | 1018.5 |
| 20260504041528 | 51 | 349 | 0.0 | 0.0 | 0.00 | 0.00 | 0.00 | 88 | 1018.5 |
| 20260504041024 | 51 | 330 | 0.0 | 0.0 | 0.00 | 0.00 | 0.00 | 86 | 1018.5 |
| 20260504040522 | 51 | 330 | 0.0 | 0.0 | 0.00 | 0.00 | 0.00 | 85 | 1018.4 |
| 20260504040018 | 52 | 327 | 0.0 | 0.0 | 0.00 | 0.00 | 0.00 | 85 | 1018.8 |
| 20260504035515 | 52 | 335 | 0.0 | 0.0 | 0.00 | 0.00 | 0.00 | 85 | 1018.4 |
| 20260504035011 | 52 | 330 | 0.0 | 0.0 | 0.00 | 0.00 | 0.00 | 85 | 1018.6 |
| 20260504034509 | 52 | 337 | 0.0 | 0.0 | 0.00 | 0.00 | 0.00 | 85 | 1018.7 |
| 20260504034006 | 52 | 337 | 0.0 | 0.0 | 0.00 | 0.00 | 0.00 | 84 | 1018.7 |
| 20260504033504 | 52 | 337 | 0.0 | 0.0 | 0.00 | 0.00 | 0.00 | 84 | 1018.8 |
| 20260504033001 | 52 | 333 | 0.0 | 0.0 | 0.00 | 0.00 | 0.00 | 83 | 1018.8 |
| 20260504032458 | 53 | 330 | 0.0 | 0.0 | 0.00 | 0.00 | 0.00 | 82 | 1018.8 |
| 20260504031954 | 52 | 324 | 0.0 | 0.0 | 0.00 | 0.00 | 0.00 | 82 | 1018.8 |
| 20260504031451 | 53 | 334 | 0.0 | 0.0 | 0.00 | 0.00 | 0.00 | 83 | 1018.9 |
| 20260504030948 | 53 | 334 | 0.0 | 0.0 | 0.00 | 0.00 | 0.00 | 82 | 1018.6 |
| 20260504030445 | 53 | 333 | 0.0 | 0.0 | 0.00 | 0.00 | 0.00 | 82 | 1018.7 |
| 20260504025941 | 53 | 333 | 0.0 | 0.0 | 0.00 | 0.00 | 0.00 | 81 | 1018.7 |
| 20260504025438 | 53 | 335 | 0.0 | 0.0 | 0.00 | 0.00 | 0.00 | 81 | 1018.7 |
| 20260504024935 | 53 | 327 | 0.0 | 0.0 | 0.00 | 0.00 | 0.00 | 79 | 1018.5 |
| 20260504024432 | 54 | 320 | 0.0 | 0.0 | 0.00 | 0.00 | 0.00 | 79 | 1018.5 |
| 20260504023929 | 54 | 320 | 0.0 | 0.0 | 0.00 | 0.00 | 0.00 | 77 | 1018.4 |
| 20260504023425 | 55 | 320 | 0.0 | 0.0 | 0.00 | 0.00 | 0.00 | 77 | 1018.4 |
| 20260504022921 | 55 | 320 | 0.0 | 0.0 | 0.00 | 0.00 | 0.00 | 75 | 1018.5 |
| 20260504022418 | 55 | 319 | 0.0 | 0.0 | 0.00 | 0.00 | 0.00 | 75 | 1018.3 |
| 20260504021914 | 55 | 319 | 0.0 | 0.0 | 0.00 | 0.00 | 0.00 | 74 | 1018.1 |
| 20260504021412 | 55 | 320 | 0.0 | 0.0 | 0.00 | 0.00 | 0.00 | 74 | 1018.3 |
| 20260504020909 | 56 | 320 | 0.0 | 0.0 | 0.00 | 0.00 | 0.00 | 74 | 1018.2 |
| 20260504020405 | 56 | 319 | 0.0 | 0.0 | 0.00 | 0.00 | 0.00 | 74 | 1018.2 |
| 20260504015902 | 56 | 320 | 0.0 | 0.0 | 0.00 | 0.00 | 0.00 | 73 | 1018.1 |
| 20260504015358 | 56 | 319 | 0.0 | 0.0 | 0.00 | 0.00 | 0.00 | 73 | 1018.1 |
| 20260504014854 | 57 | 319 | 0.0 | 0.0 | 0.00 | 0.00 | 0.00 | 72 | 1018.2 |
| 20260504014350 | 57 | 319 | 0.0 | 0.0 | 0.00 | 0.00 | 0.00 | 72 | 1018.0 |
| 20260504013848 | 57 | 319 | 0.0 | 0.0 | 0.00 | 0.00 | 0.00 | 71 | 1018.1 |
| 20260504013345 | 57 | 319 | 0.0 | 0.0 | 0.00 | 0.00 | 0.00 | 69 | 1018.0 |
| 20260504012842 | 57 | 319 | 0.0 | 0.0 | 0.00 | 0.00 | 0.00 | 70 | 1017.9 |
| 20260504012340 | 58 | 319 | 0.0 | 0.0 | 0.00 | 0.00 | 0.00 | 68 | 1017.7 |
| 20260504011837 | 59 | 319 | 0.0 | 0.0 | 0.00 | 0.00 | 0.00 | 67 | 1017.8 |
| 20260504011333 | 59 | 319 | 0.0 | 0.0 | 0.00 | 0.00 | 0.00 | 66 | 1017.8 |
| 20260504010830 | 60 | 319 | 0.0 | 0.0 | 0.00 | 0.00 | 0.00 | 65 | 1017.8 |
| 20260504010325 | 60 | 319 | 0.0 | 0.0 | 0.00 | 0.00 | 0.00 | 64 | 1017.7 |
| 20260504005822 | 60 | 319 | 0.0 | 0.0 | 0.00 | 0.00 | 0.00 | 61 | 1017.8 |
| 20260504005319 | 61 | 319 | 0.0 | 0.0 | 0.00 | 0.00 | 0.00 | 60 | 1017.6 |
| 20260504004816 | 61 | 319 | 0.0 | 0.0 | 0.00 | 0.00 | 0.00 | 59 | 1017.6 |
| 20260504004314 | 61 | 319 | 0.0 | 0.0 | 0.00 | 0.00 | 0.00 | 57 | 1017.5 |
| 20260504003810 | 62 | 319 | 0.0 | 0.0 | 0.00 | 0.00 | 0.00 | 58 | 1017.6 |
| 20260504003307 | 62 | 319 | 0.0 | 0.0 | 0.00 | 0.00 | 0.00 | 58 | 1017.5 |
| 20260504002803 | 62 | 319 | 0.0 | 0.0 | 0.00 | 0.00 | 0.00 | 57 | 1017.5 |
| 20260504002301 | 63 | 319 | 0.0 | 0.0 | 0.00 | 0.00 | 0.00 | 56 | 1017.5 |
| 20260504001758 | 63 | 319 | 0.0 | 0.0 | 0.00 | 0.00 | 0.00 | 55 | 1017.4 |
| 20260504001255 | 64 | 319 | 0.0 | 0.0 | 0.00 | 0.00 | 0.00 | 55 | 1017.5 |
| 20260504000752 | 64 | 319 | 0.0 | 0.0 | 0.00 | 0.00 | 0.00 | 55 | 1017.5 |
| 20260504000249 | 64 | 319 | 0.0 | 0.0 | 0.00 | 0.00 | 0.00 | 53 | 1017.4 |
| 20260503235747 | 65 | 319 | 0.0 | 0.0 | 0.00 | 0.00 | 0.00 | 54 | 1017.5 |
| 20260503235244 | 65 | 319 | 0.0 | 0.0 | 0.00 | 0.00 | 0.00 | 53 | 1017.5 |
| 20260503234741 | 66 | 326 | 0.0 | 0.0 | 0.00 | 0.00 | 0.00 | 52 | 1017.4 |
| 20260503234239 | 66 | 319 | 0.0 | 0.0 | 0.00 | 0.00 | 0.00 | 48 | 1017.3 |
| 20260503233736 | 66 | 325 | 0.0 | 0.0 | 0.00 | 0.00 | 0.00 | 49 | 1017.3 |
| 20260503233232 | 67 | 331 | 0.0 | 0.0 | 0.00 | 0.00 | 0.00 | 47 | 1017.3 |
| 20260503232729 | 68 | 337 | 0.0 | 1.0 | 0.00 | 0.00 | 0.00 | 46 | 1017.1 |
| 20260503232226 | 68 | 160 | 0.0 | 1.0 | 0.00 | 0.00 | 0.00 | 43 | 1017.4 |
| 20260503231725 | 68 | 304 | 1.0 | 1.0 | 0.00 | 0.00 | 0.00 | 43 | 1017.6 |
| 20260503231221 | 69 | 327 | 0.0 | 0.0 | 0.00 | 0.00 | 0.00 | 43 | 1017.4 |
| 20260503230717 | 69 | 85 | 0.0 | 0.0 | 0.00 | 0.00 | 0.00 | 42 | 1017.4 |
| 20260503230214 | 69 | 323 | 1.0 | 1.0 | 0.00 | 0.00 | 0.00 | 44 | 1017.4 |
| 20260503225711 | 69 | 10 | 3.0 | 5.0 | 0.00 | 0.00 | 0.00 | 40 | 1017.5 |
| 20260503225206 | 69 | 343 | 1.0 | 1.0 | 0.00 | 0.00 | 0.00 | 41 | 1017.3 |
| 20260503224704 | 69 | 29 | 1.0 | 2.0 | 0.00 | 0.00 | 0.00 | 42 | 1017.3 |
| 20260503224201 | 70 | 303 | 1.0 | 1.0 | 0.00 | 0.00 | 0.00 | 40 | 1017.6 |
| 20260503223659 | 70 | 271 | 0.0 | 1.0 | 0.00 | 0.00 | 0.00 | 40 | 1017.6 |
| 20260503223156 | 70 | 282 | 1.0 | 2.0 | 0.00 | 0.00 | 0.00 | 38 | 1017.5 |
| 20260503222652 | 71 | 16 | 2.0 | 5.0 | 0.00 | 0.00 | 0.00 | 38 | 1017.7 |
| 20260503222150 | 71 | 321 | 0.0 | 1.0 | 0.00 | 0.00 | 0.00 | 37 | 1017.5 |
| 20260503221649 | 71 | 183 | 1.0 | 1.0 | 0.00 | 0.00 | 0.00 | 38 | 1017.6 |
| 20260503221145 | 71 | 65 | 0.0 | 1.0 | 0.00 | 0.00 | 0.00 | 37 | 1017.5 |
| 20260503220642 | 72 | 295 | 0.0 | 2.0 | 0.00 | 0.00 | 0.00 | 36 | 1017.5 |
| 20260503220139 | 72 | 298 | 2.0 | 6.0 | 0.00 | 0.00 | 0.00 | 37 | 1017.7 |
| 20260503215636 | 72 | 277 | 0.0 | 2.0 | 0.00 | 0.00 | 0.00 | 36 | 1017.9 |
| 20260503215132 | 74 | 243 | 1.0 | 1.0 | 0.00 | 0.00 | 0.00 | 37 | 1017.9 |
| 20260503214631 | 74 | 332 | 1.0 | 2.0 | 0.00 | 0.00 | 0.00 | 36 | 1017.9 |
| 20260503214127 | 73 | 230 | 0.0 | 2.0 | 0.00 | 0.00 | 0.00 | 37 | 1017.8 |
| 20260503213626 | 71 | 109 | 0.0 | 1.0 | 0.00 | 0.00 | 0.00 | 38 | 1017.8 |
| 20260503213122 | 72 | 305 | 1.0 | 2.0 | 0.00 | 0.00 | 0.00 | 38 | 1017.8 |
| 20260503212620 | 71 | 301 | 3.0 | 5.0 | 0.00 | 0.00 | 0.00 | 38 | 1018.0 |
| 20260503212117 | 72 | 318 | 1.0 | 3.0 | 0.00 | 0.00 | 0.00 | 37 | 1018.1 |
| 20260503211615 | 71 | 258 | 2.0 | 5.0 | 0.00 | 0.00 | 0.00 | 39 | 1018.2 |
| 20260503211110 | 71 | 305 | 2.0 | 3.0 | 0.00 | 0.00 | 0.00 | 39 | 1018.2 |
| 20260503210607 | 72 | 18 | 1.0 | 1.0 | 0.00 | 0.00 | 0.00 | 37 | 1018.2 |
| 20260503205559 | 72 | 161 | 1.0 | 2.0 | 0.00 | 0.00 | 0.00 | 36 | 1018.3 |
| 20260503205055 | 71 | 201 | 2.0 | 3.0 | 0.00 | 0.00 | 0.00 | 37 | 1018.4 |
| 20260503204553 | 72 | 44 | 2.0 | 5.0 | 0.00 | 0.00 | 0.00 | 37 | 1018.5 |
| 20260503204050 | 72 | 260 | 3.0 | 6.0 | 0.00 | 0.00 | 0.00 | 37 | 1018.6 |
| 20260503203547 | 70 | 161 | 1.0 | 2.0 | 0.00 | 0.00 | 0.00 | 39 | 1018.8 |
| 20260503203044 | 71 | 325 | 1.0 | 2.0 | 0.00 | 0.00 | 0.00 | 37 | 1018.9 |
| 20260503202542 | 71 | 86 | 0.0 | 3.0 | 0.00 | 0.00 | 0.00 | 38 | 1018.9 |
| 20260503202039 | 72 | 215 | 1.0 | 8.0 | 0.00 | 0.00 | 0.00 | 38 | 1018.9 |
| 20260503201538 | 70 | 11 | 2.0 | 5.0 | 0.00 | 0.00 | 0.00 | 38 | 1019.2 |
| 20260503201034 | 70 | 54 | 3.0 | 3.0 | 0.00 | 0.00 | 0.00 | 38 | 1019.2 |
| 20260503200530 | 71 | 209 | 3.0 | 7.0 | 0.00 | 0.00 | 0.00 | 38 | 1019.2 |
| 20260503200027 | 70 | 280 | 3.0 | 6.0 | 0.00 | 0.00 | 0.00 | 39 | 1019.2 |
| 20260503195524 | 71 | 346 | 0.0 | 2.0 | 0.00 | 0.00 | 0.00 | 41 | 1019.3 |
| 20260503195021 | 73 | 312 | 3.0 | 5.0 | 0.00 | 0.00 | 0.00 | 39 | 1019.4 |
| 20260503194519 | 71 | 205 | 0.0 | 2.0 | 0.00 | 0.00 | 0.00 | 40 | 1019.4 |
| 20260503194018 | 71 | 220 | 2.0 | 7.0 | 0.00 | 0.00 | 0.00 | 39 | 1019.6 |
| 20260503193515 | 71 | 29 | 1.0 | 2.0 | 0.00 | 0.00 | 0.00 | 37 | 1019.8 |
| 20260503193010 | 71 | 352 | 3.0 | 7.0 | 0.00 | 0.00 | 0.00 | 38 | 1020.0 |
| 20260503192507 | 70 | 138 | 0.0 | 1.0 | 0.00 | 0.00 | 0.00 | 39 | 1020.0 |
| 20260503192002 | 69 | 25 | 1.0 | 3.0 | 0.00 | 0.00 | 0.00 | 39 | 1020.1 |
| 20260503191500 | 69 | 309 | 1.0 | 8.0 | 0.00 | 0.00 | 0.00 | 40 | 1020.0 |
| 20260503190956 | 69 | 343 | 4.0 | 7.0 | 0.00 | 0.00 | 0.00 | 38 | 1020.0 |
| 20260503190453 | 70 | 300 | 2.0 | 10.0 | 0.00 | 0.00 | 0.00 | 39 | 1020.3 |
| 20260503185951 | 70 | 65 | 1.0 | 3.0 | 0.00 | 0.00 | 0.00 | 38 | 1020.4 |